TimeCDT,TemperatureF,Dew PointF,Humidity,Sea Level PressureIn,VisibilityMPH,Wind Direction,Wind SpeedMPH,Gust SpeedMPH,PrecipitationIn,Events,Conditions,WindDirDegrees,DateUTC
12:15 AM,81.1,74.3,80,29.97,7.0,Calm,Calm,-,N/A,Rain,Heavy Rain,0,2013-08-18 05:15:00
12:35 AM,80.8,74.3,81,29.97,7.0,Calm,Calm,-,N/A,Rain,Heavy Rain,0,2013-08-18 05:35:00
12:55 AM,80.2,74.3,82,29.97,7.0,Calm,Calm,-,N/A,Rain,Heavy Rain,0,2013-08-18 05:55:00
1:15 AM,79.7,73.8,82,29.97,7.0,Calm,Calm,-,N/A,Rain,Heavy Rain,0,2013-08-18 06:15:00
1:35 AM,79.3,73.8,83,29.97,7.0,Calm,Calm,-,N/A,Rain,Heavy Rain,0,2013-08-18 06:35:00
1:55 AM,78.8,72.7,81,29.97,5.0,Calm,Calm,-,N/A,Rain,Heavy Rain,0,2013-08-18 06:55:00
2:15 AM,77.5,72.3,84,29.97,7.0,Calm,Calm,-,N/A,Rain,Heavy Rain,0,2013-08-18 07:15:00
2:35 AM,77.2,72.5,85,29.96,5.0,Calm,Calm,-,N/A,Rain,Heavy Rain,0,2013-08-18 07:35:00
2:55 AM,77.5,73.4,87,29.96,5.0,Calm,Calm,-,N/A,Rain,Heavy Rain,0,2013-08-18 07:55:00
3:15 AM,77.2,73.4,88,29.96,5.0,Calm,Calm,-,N/A,Rain,Heavy Rain,0,2013-08-18 08:15:00
3:35 AM,77.0,73.4,89,29.96,5.0,Calm,Calm,-,N/A,Rain,Heavy Rain,0,2013-08-18 08:35:00
3:55 AM,75.7,72.7,90,29.96,5.0,Calm,Calm,-,N/A,Rain,Heavy Rain,0,2013-08-18 08:55:00
4:15 AM,75.6,72.9,91,29.96,4.0,Calm,Calm,-,N/A,Rain,Heavy Rain,0,2013-08-18 09:15:00
4:35 AM,74.8,72.5,92,29.96,2.5,Calm,Calm,-,N/A,Rain,Heavy Rain,0,2013-08-18 09:35:00
4:55 AM,74.8,72.7,93,29.96,3.0,Calm,Calm,-,N/A,Rain,Heavy Rain,0,2013-08-18 09:55:00
5:15 AM,74.3,72.1,93,29.96,2.5,Calm,Calm,-,N/A,Rain,Heavy Rain,0,2013-08-18 10:15:00
5:35 AM,74.3,72.3,94,29.96,2.0,Calm,Calm,-,N/A,Rain,Heavy Rain,0,2013-08-18 10:35:00
5:55 AM,74.5,72.5,94,29.97,2.0,Calm,Calm,-,N/A,Rain,Heavy Rain,0,2013-08-18 10:55:00
6:15 AM,74.7,72.7,94,29.97,2.5,Calm,Calm,-,N/A,Rain,Heavy Rain,0,2013-08-18 11:15:00
6:35 AM,74.3,72.1,93,29.98,2.5,Calm,Calm,-,N/A,Rain,Heavy Rain,0,2013-08-18 11:35:00
6:55 AM,74.7,72.9,94,29.99,2.5,Calm,Calm,-,N/A,Rain,Heavy Rain,0,2013-08-18 11:55:00
7:15 AM,74.5,72.7,94,29.99,1.2,Calm,Calm,-,N/A,Rain,Heavy Rain,0,2013-08-18 12:15:00
7:35 AM,75.4,73.6,94,29.99,1.2,Calm,Calm,-,N/A,Rain,Heavy Rain,0,2013-08-18 12:35:00
7:55 AM,76.1,74.3,94,30.00,1.2,Calm,Calm,-,N/A,Rain,Heavy Rain,0,2013-08-18 12:55:00
8:15 AM,77.4,75.4,94,30.00,2.0,Calm,Calm,-,N/A,Rain,Heavy Rain,0,2013-08-18 13:15:00
8:35 AM,78.6,76.1,92,30.00,2.5,Calm,Calm,-,N/A,Rain,Heavy Rain,0,2013-08-18 13:35:00
8:55 AM,80.1,76.1,88,30.01,3.0,Calm,Calm,-,N/A,Rain,Heavy Rain,0,2013-08-18 13:55:00
9:15 AM,82.0,75.6,81,30.01,3.0,Calm,Calm,-,N/A,Rain,Heavy Rain,0,2013-08-18 14:15:00
9:35 AM,83.3,75.0,76,30.01,4.0,Calm,Calm,-,N/A,Rain,Heavy Rain,0,2013-08-18 14:35:00
9:55 AM,84.4,74.3,72,30.01,7.0,Calm,Calm,-,N/A,Rain,Heavy Rain,0,2013-08-18 14:55:00
10:15 AM,85.6,71.4,62,30.02,5.0,Calm,Calm,-,N/A,Rain,Heavy Rain,0,2013-08-18 15:15:00
10:35 AM,86.5,71.1,60,30.02,5.0,Calm,Calm,-,N/A,Rain,Heavy Rain,0,2013-08-18 15:35:00
10:55 AM,87.4,70.0,56,30.02,5.0,Calm,Calm,-,N/A,Rain,Heavy Rain,0,2013-08-18 15:55:00
11:15 AM,88.5,69.8,54,30.02,5.0,Calm,Calm,-,N/A,Rain,Heavy Rain,0,2013-08-18 16:15:00
11:35 AM,89.2,69.4,52,30.02,5.0,Calm,Calm,-,N/A,Rain,Heavy Rain,0,2013-08-18 16:35:00
11:55 AM,90.9,67.5,46,30.02,5.0,Calm,Calm,-,N/A,Rain,Heavy Rain,0,2013-08-18 16:55:00
12:15 PM,91.6,64.0,40,30.02,5.0,Calm,Calm,-,N/A,Rain,Heavy Rain,0,2013-08-18 17:15:00
12:35 PM,91.4,64.4,41,30.02,5.0,Calm,Calm,-,N/A,Rain,Heavy Rain,0,2013-08-18 17:35:00
12:55 PM,93.4,62.6,36,30.02,5.0,Calm,Calm,-,N/A,Rain,Heavy Rain,0,2013-08-18 17:55:00
1:15 PM,92.5,63.1,38,30.01,10.0,Calm,Calm,-,N/A,,Clear,0,2013-08-18 18:15:00
1:35 PM,94.3,62.8,35,30.00,5.0,Calm,Calm,-,N/A,,Haze,0,2013-08-18 18:35:00
1:55 PM,92.5,63.7,38,30.00,4.0,Calm,Calm,-,N/A,,Haze,0,2013-08-18 18:55:00
2:15 PM,95.2,63.1,35,29.99,5.0,Calm,Calm,-,N/A,,Haze,0,2013-08-18 19:15:00
2:35 PM,96.6,62.6,32,29.99,4.0,Calm,Calm,-,N/A,,Haze,0,2013-08-18 19:35:00
2:55 PM,97.2,62.6,32,29.99,5.0,East,11.5,17.3,N/A,,Haze,100,2013-08-18 19:55:00
3:15 PM,97.3,62.1,31,29.98,5.0,ESE,4.6,20.7,N/A,,Haze,110,2013-08-18 20:15:00
3:35 PM,96.8,61.9,31,29.97,7.0,ESE,3.5,21.9,N/A,,Clear,110,2013-08-18 20:35:00
3:55 PM,96.3,62.2,32,29.97,7.0,East,10.4,16.1,N/A,,Clear,100,2013-08-18 20:55:00
4:15 PM,96.4,62.2,32,29.97,7.0,East,10.4,23.0,N/A,,Clear,90,2013-08-18 21:15:00
4:35 PM,95.7,63.1,34,29.96,7.0,East,17.3,23.0,N/A,,Clear,100,2013-08-18 21:35:00
4:55 PM,95.0,62.4,34,29.97,7.0,ESE,17.3,28.8,N/A,,Clear,110,2013-08-18 21:55:00
5:15 PM,94.6,61.9,34,29.97,7.0,East,15.0,24.2,N/A,,Clear,100,2013-08-18 22:15:00
5:35 PM,94.1,59.9,32,29.97,7.0,East,15.0,20.7,N/A,,Clear,100,2013-08-18 22:35:00
5:55 PM,93.6,59.0,31,29.96,7.0,ESE,15.0,24.2,N/A,,Clear,110,2013-08-18 22:55:00
6:15 PM,93.2,58.3,31,29.96,7.0,East,17.3,21.9,N/A,,Clear,100,2013-08-18 23:15:00
6:35 PM,92.5,55.0,28,29.96,7.0,East,13.8,21.9,N/A,,Clear,100,2013-08-18 23:35:00
6:55 PM,92.1,54.3,28,29.95,7.0,ESE,12.7,18.4,N/A,,Clear,110,2013-08-18 23:55:00
7:15 PM,91.6,52.5,26,29.96,7.0,East,13.8,-,N/A,,Clear,100,2013-08-19 00:15:00
7:35 PM,90.0,54.3,30,29.96,7.0,ESE,12.7,-,N/A,,Clear,120,2013-08-19 00:35:00
7:55 PM,88.7,56.7,34,29.96,4.0,ESE,12.7,16.1,N/A,,Haze,120,2013-08-19 00:55:00
8:15 PM,87.4,58.3,37,29.96,5.0,ESE,11.5,-,N/A,,Haze,120,2013-08-19 01:15:00
8:35 PM,86.4,59.4,40,29.96,10.0,SE,11.5,-,N/A,,Clear,130,2013-08-19 01:35:00
8:55 PM,85.5,62.1,45,29.97,7.0,SE,11.5,-,N/A,,Clear,130,2013-08-19 01:55:00
9:15 PM,84.4,63.9,50,29.97,7.0,SE,5.8,-,N/A,,Clear,140,2013-08-19 02:15:00
9:35 PM,83.7,65.5,54,29.97,7.0,Calm,Calm,-,N/A,,Clear,0,2013-08-19 02:35:00
9:55 PM,83.1,66.4,57,29.97,7.0,Calm,Calm,-,N/A,,Clear,0,2013-08-19 02:55:00
10:15 PM,82.0,67.3,61,29.98,10.0,Calm,Calm,-,N/A,,Clear,0,2013-08-19 03:15:00
10:35 PM,81.5,66.2,60,29.98,7.0,Calm,Calm,-,N/A,,Clear,0,2013-08-19 03:35:00
10:55 PM,80.8,65.7,60,29.98,7.0,Calm,Calm,-,N/A,,Clear,0,2013-08-19 03:55:00
11:15 PM,80.2,66.2,62,29.98,7.0,Calm,Calm,-,N/A,,Clear,0,2013-08-19 04:15:00
11:35 PM,79.7,66.7,64,29.98,7.0,Calm,Calm,-,N/A,,Clear,0,2013-08-19 04:35:00
11:55 PM,78.8,66.6,66,29.99,4.0,Calm,Calm,-,N/A,,Haze,0,2013-08-19 04:55:00